Regional Weather Roundup
Issued by NWS

Home | Current Version | Previous Version | Text Only | Print | Product List | Glossary On
Versions: 1 2 3 4 5 6 7 8 9 10 11 12 13 14 15 16 17 18 19 20 21 22 23 24 25 26 27 28 29 30 31 32 33 34 35 36 37 38 39 40 41 42 43 44 45 46 47 48 49 50
000
ASUS44 KJAN 270010
RWRMS

MISSISSIPPI HOURLY WEATHER ROUNDUP
NATIONAL WEATHER SERVICE JACKSON MS
700 PM CDT SUN APR 26 2015

NOTE: "FAIR: INDICATES FEW OR NO CLOUDS BELOW 12,000 FEET WITH NO
SIGNIFICANT WEATHER AND/OR OBSTRUCTIONS TO VISIBILITY.

MSZ001>002-007>008-010>013-018>021-025>028-034>036-270100-
NORTHWEST MISSISSIPPI

CITY           SKY/WX    TMP DP  RH WIND       PRES   REMARKS
CLARKSDALE     FAIR      61  55  82 N16G22    29.83R
CLEVELAND      FAIR      65  60  84 N16       29.79R
GREENWOOD      PTCLDY    73  61  65 N12       29.75S
6HR MIN TEMP:  73; 6HR MAX TEMP:  83;

GREENVILLE     CLEAR     69  59  70 N15G24    29.76S
6HR MIN TEMP:  69; 6HR MAX TEMP:  80;

OLIVE BRANCH   CLOUDY    57  55  94 N12       29.85R
OXFORD         FAIR      63  52  67 N10G17    29.84R
TUNICA         PTCLDY    59  52  77 N10       29.85S
$$

MSZ003>006-009-014>017-022>024-029>033-037>039-270100-
NORTHEAST MISSISSIPPI

CITY           SKY/WX    TMP DP  RH WIND       PRES   REMARKS
COLUMBUS AFB   CLEAR     76  59  55 N9        29.74S
6HR MIN TEMP:  76; 6HR MAX TEMP:  83;

CORINTH        CLOUDY    57  50  77 N7G16     29.85R
GOLDN TRIANGLE CLEAR     75  61  60 N12       29.73S
STARKVILLE     FAIR      75  61  60 N6        29.74R
TUPELO         CLEAR     65  54  67 NE20      29.80R
6HR MIN TEMP:  65; 6HR MAX TEMP:  78;

$$

MSZ040-058-270100-
CENTRAL MISSISSIPPI

CITY           SKY/WX    TMP DP  RH WIND       PRES   REMARKS
JACKSON INTL   CLOUDY    81  62  52 CALM      29.71S
6HR MIN TEMP:  81; 6HR MAX TEMP:  88;

JACKSON HAWKNS CLOUDY    81  60  48 CALM      29.72R
6HR MIN TEMP:  81; 6HR MAX TEMP:  87;

MERIDIAN KEY   MOCLDY    77  63  61 CALM      29.71F
6HR MIN TEMP:  77; 6HR MAX TEMP:  87;

MERIDIAN NAS   MOCLDY    79  61  53 CALM      29.72S
6HR MIN TEMP:  79; 6HR MAX TEMP:  87;

RAYMOND        FAIR      75  70  83 CALM      29.71R
VICKSBURG      CLOUDY    78  68  71 NE5       29.70R
6HR MIN TEMP:  78; 6HR MAX TEMP:  86;

$$

MSZ059>079-270100-
SOUTH MISSISSIPPI

CITY           SKY/WX    TMP DP  RH WIND       PRES   REMARKS
BROOKHAVEN       N/A     75  72  88 CALM      29.72F
HATTIESBURG    CLOUDY    79  67  66 CALM      29.72S
6HR MIN TEMP:  79; 6HR MAX TEMP:  88;

MCCOMB         CLOUDY    78  69  73 CALM      29.72S
6HR MIN TEMP:  78; 6HR MAX TEMP:  84;

NATCHEZ        CLOUDY    81  70  69 CALM      29.71R
6HR MIN TEMP:  79; 6HR MAX TEMP:  86;

PINE BELT      CLOUDY    77  63  61 CALM      29.73S
6HR MIN TEMP:  77; 6HR MAX TEMP:  88;

$$

MSZ080>082-270100-
COASTAL MISSISSIPPI

CITY           SKY/WX    TMP DP  RH WIND       PRES   REMARKS
BAY ST LOUIS   CLEAR     77  70  78 MISG      29.70S
BILOXI         CLOUDY    79  71  76 SW6       29.70S
6HR MIN TEMP:  79; 6HR MAX TEMP:  85;

PASCAGOULA     CLOUDY    78  72  81 S5        29.71R
6HR MIN TEMP:  78; 6HR MAX TEMP:  86;

GULFPORT       CLOUDY    80  68  66 CALM      29.70S
6HR MIN TEMP:  80; 6HR MAX TEMP:  85;

$$


USA.gov is the U.S. government's official web portal to all federal, state and local government web resources and services.